Regional Weather Roundup
Issued by NWS

Home | Current Version | Previous Version | Graphics & Text | Print | Product List | Glossary Off
Versions: 1 2 3 4 5 6 7 8 9 10 11 12 13 14 15 16 17 18 19 20 21 22 23 24 25 26 27 28 29 30 31 32 33 34 35 36 37 38 39 40 41 42 43 44 45 46 47 48 49 50

000
ASUS43 KMKX 192311
RWRWI

WISCONSIN REGIONAL WEATHER ROUNDUP
NATIONAL WEATHER SERVICE MILWAUKEE/SULLIVAN WI
600 PM CDT SUN APR 19 2015

NOTE: "FAIR" INDICATES FEW OR NO CLOUDS BELOW 12,000 FEET WITH NO
SIGNIFICANT WEATHER AND/OR OBSTRUCTIONS TO VISIBILITY.

WIZ001-002-006>008-014>016-023>028-200000-
NORTHWEST WISCONSIN

CITY           SKY/WX    TMP DP  RH WIND       PRES   REMARKS
SUPERIOR ARPT  CLOUDY    36  35  99 NE9       29.60F FOG     WCI  29
ASHLAND        CLOUDY    48  41  76 N5        29.56S
HAYWARD        CLOUDY    55  43  63 CALM      29.54F
SIREN          CLOUDY    50  47  88 W10       29.58R
CUMBERLAND     DRIZZLE   50  48  93 NW9       29.55S
RICE LAKE      RAIN      53  44  73 SE6       29.57S
CHETEK         RAIN      50  47  91 SE3       29.55F
LADYSMITH      RAIN      50  47  89 W3        29.57F
EAU CLAIRE     LGT RAIN  51  47  86 E5        29.53F
MENOMONIE      HVY RAIN  51  48  90 CALM      29.55R VSB 1
NEW RICHMOND   CLOUDY    53  45  75 NW9       29.57F
OSCEOLA        CLOUDY    54  46  72 NW9       29.60S
$$

WIZ003>005-009-010-017-018-200000-
NORTH CENTRAL WISCONSIN

CITY           SKY/WX    TMP DP  RH WIND       PRES   REMARKS
MANITOWISH WTR CLOUDY    56  40  55 S7        29.56F
ARBOR VITAE    CLOUDY    59  41  50 S5        29.56F
WOODRUFF       CLOUDY    59  41  50 S5        29.56F
RHINELANDER    CLOUDY    61  36  39 SE13      29.57F
EAGLE RIVER    CLOUDY    57  32  37 SE8       29.57F
LAND O LAKES   CLOUDY    56  32  40 SE5       29.59F
PHILLIPS       CLOUDY    52  48  87 N3        29.54F
TOMAHAWK       CLOUDY    61  37  40 CALM      29.55F
MEDFORD        CLOUDY    61  39  45 SE7       29.53F
MERRILL        CLOUDY    62  38  40 SE8       29.54F
$$

WIZ029-030-035-036-043>047-200000-
CENTRAL WISCONSIN

CITY           SKY/WX    TMP DP  RH WIND       PRES   REMARKS
WAUSAU         CLOUDY    64  37  36 E13       29.52F
MOSINEE        PTSUNNY   63  36  36 E8G17     29.55F
MARSHFIELD     CLOUDY    64  39  39 E8        29.52F
STEVENS POINT  CLOUDY    63  36  36 E13G23    29.53F
WAUPACA        CLOUDY    68  33  26 E15       29.55F
WAUTOMA        CLOUDY    68  35  29 E9G17     29.52F
WISC RAPIDS    CLOUDY    67  35  30 E13       29.51F
CAMP DOUGLAS   CLOUDY    71  41  34 NW8       29.47F
$$

WIZ011>013-019>022-031-037>040-048>050-200000-
NORTHEAST WISCONSIN

CITY           SKY/WX    TMP DP  RH WIND       PRES   REMARKS
ANTIGO         CLOUDY    57  36  45 E13       29.58F
SHAWANO        CLOUDY    62  32  32 E10       29.58F
OCONTO         PTSUNNY   56  32  40 NE6       29.60F
STURGEON BAY   PTSUNNY   50  36  57 NW5       29.62F
GREEN BAY      PTSUNNY   55  37  50 NE17      29.58F
MANITOWOC      CLOUDY    54  32  43 NE8       29.59F
APPLETON       MOSUNNY   64  28  25 E9        29.57F
CLINTONVILLE   CLOUDY    63  32  31 E10       29.57F
OSHKOSH        CLOUDY    64  36  35 E9        29.54F
$$

WIZ032>034-041-042-053>061-200000-
SOUTHWEST WISCONSIN

CITY           SKY/WX    TMP DP  RH WIND       PRES   REMARKS
LA CROSSE      LGT RAIN  54  50  86 NW10      29.50F
SPARTA         CLOUDY    65  42  43 CALM      29.49F
VIROQUA        CLOUDY    64  45  48 N9        29.48F
BOSCOBEL       CLOUDY    74  44  34 NE5       29.44F
PRAIRIE DU CHI CLOUDY    66  46  49 NW12      29.45F
PLATTEVILLE    CLOUDY    69  46  44 SE10      29.46S
$$

WIZ056-057-062-063-064-067-068-200000-
SOUTH CENTRAL WISCONSIN

CITY           SKY/WX    TMP DP  RH WIND       PRES   REMARKS
REEDSBURG      PTSUNNY   70  41  35 E13       29.47F
BARABOO/DELLS  CLOUDY    68  37  31 E12G17    29.49F
LONE ROCK      CLOUDY    72  42  34 E16       29.45F
MINERAL POINT  CLOUDY    70  43  37 SE9       29.46F
MADISON        CLOUDY    66  37  34 SE17      29.49F
MIDDLETON      CLOUDY    67  35  30 SE14      29.49F
WATERTOWN      CLOUDY    60  35  39 E13       29.51F
MONROE         CLOUDY    64  41  42 E12G20    29.47F
JANESVILLE     DRIZZLE   64  36  34 E15       29.49F
$$

WIZ051-052-058>065-066-070>072-200000-
SOUTHEAST WISCONSIN

CITY           SKY/WX    TMP DP  RH WIND       PRES   REMARKS
MILWAUKEE      LGT RAIN  45  33  63 NE7G18    29.55F
WAUKESHA       MOSUNNY   54  34  47 E12       29.54F
MILWAUKEE/TIMM CLOUDY    50  28  43 NE8       29.56F
RACINE         LGT RAIN  44  36  73 NE7       29.55F
BURLINGTON     DRIZZLE   53  36  52 E14       29.52F
KENOSHA        LGT RAIN  50  42  74 E8        29.53F
FOND DU LAC    CLOUDY    64  32  30 SE12G21   29.54F
SHEBOYGAN      CLOUDY    51  34  52 E8        29.58F
WEST BEND      CLOUDY    54  30  40 E10       29.55F
JUNEAU         CLOUDY    61  35  37 E13G21    29.53F
$$

LSZ147-162-200000-
LAKE SUPERIOR

STATION/POSITION TIME  TEMP    WIND        PRES    WAVE
                       AIR SEA DIR/SP/G            HT/PER
                 (UTC) (F)     (DEG/KT/KT) (MB)    (FT/S)
DEVILS ISLAND    2300   36      30/  9/ 11 1002.2F
PORT WING        2200   37      40/ 12/ 14 1002.7S
SAXON HARBOR     2240   51      CALM  /  3 1001.0F
$$

LMZ867-665-643>646-200000-
LAKE MICHIGAN

STATION/POSITION TIME  TEMP    WIND        PRES    WAVE
                       AIR SEA DIR/SP/G            HT/PER
                 (UTC) (F)     (DEG/KT/KT) (MB)    (FT/S)
CHAMBERS ISLAND  2200   39     360/ 13/ 16 1004.7F
NORTHPORT PIER   2220   44      60/ 14/ 19 1004.1F
KEWAUNEE LAKESHO 2200   47      30/ 12/ 15 1002.5F
SHEBOYGAN LAKESH 2300   42      20/ 11/ 12 1002.1F
PORT WASHINGTON  2240   49      50/ 11/ 13 1001.7F
MILWAUKEE LAKESH 2200   45      20/ 14/ 17   N/A
KENOSHA   LAKESH 2300   44      20/ 13/ 15 1000.3F
$$

TC  - TEMPERATURE IN CELSIUS
VSB - VISIBILITY IN STATUTE MILES
WCI - WIND CHILL INDEX
HX  - HEAT INDEX



USA.gov is the U.S. government's official web portal to all federal, state and local government web resources and services.